[[{"header":{"parameterUnit":"m.s-1","parameterCategory":1,"la1":30.2991,"la2":30.254,"lo1":-89.0895,"lo2":-89.0444,"dy":0.0017,"dx":0.0017,"nx":28,"ny":28,"refTime":"2024-10-04T03:00:00:Z","depth":0,"parameterNumber":2,"parameterNumberName":"U-component_of_WINDS"},"data":[0,0,0,0,0,0,0,0,0,0,0,0,0,0,0,0,0,0,0,0,0,0,0,0,0,0,0,0,0,0,0,0,0,0,0,0,0,0,0,0,0,0,0,0,0,0,0,0,0,0,0,0,0,0,0,0,0,0,-2.7465,-2.7465,0,-2.7458,-2.7458,-2.7458,-2.7431,-2.743,-2.7429,-2.7429,-2.7422,-2.7423,-2.7423,0,0,0,0,0,0,0,0,0,0,0,0,0,-2.7458,-2.7458,-2.7465,-2.7465,-2.7465,-2.7458,-2.7458,-2.7458,-2.7431,-2.743,-2.7429,-2.7429,-2.7422,-2.7423,-2.7423,0,0,0,0,0,0,0,0,0,0,0,0,0,-2.7457,-2.7458,-2.7465,-2.7451,-2.7449,-2.7458,-2.7458,-2.7458,-2.7431,-2.743,-2.7429,-2.7428,-2.7422,-2.7423,-2.7423,-2.7446,0,0,-2.7425,-2.7426,0,0,0,0,0,0,0,0,-2.7457,-2.7457,-2.7453,-2.7452,-2.745,-2.7444,-2.7453,-2.7454,-2.7431,-2.7438,-2.7429,-2.7428,-2.7431,-2.743,-2.7431,-2.7445,-2.7445,-2.7425,-2.7426,-2.7426,-2.7426,0,0,0,0,0,0,0,-2.7457,-2.7457,-2.7462,-2.7453,-2.7451,-2.7445,-2.7444,-2.7453,-2.744,-2.7437,-2.7435,-2.7435,-2.743,-2.7431,-2.7431,-2.7445,-2.7425,-2.7426,-2.7426,-2.7426,-2.7476,-2.7477,0,0,0,0,0,0,-2.7459,-2.7458,-2.7463,-2.7462,-2.7451,-2.7446,-2.7445,-2.7447,-2.7439,-2.7437,-2.7436,-2.7434,-2.743,-2.743,-2.743,-2.7454,-2.7426,-2.7426,-2.7427,-2.7475,-2.7476,-2.7477,0,0,0,0,0,0,-2.7459,-2.746,-2.7463,-2.7459,-2.7459,-2.7447,-2.745,-2.7447,-2.7448,-2.7438,-2.7436,-2.7439,-2.7429,-2.743,-2.7442,-2.7454,-2.7427,-2.7427,-2.7474,-2.7475,-2.7477,-2.7504,0,0,0,0,0,0,-2.7459,-2.746,-2.7468,-2.746,-2.746,-2.7474,-2.7451,-2.7448,-2.7449,-2.7446,-2.744,-2.7439,-2.7429,-2.7441,-2.7442,-2.7454,-2.7428,-2.7473,-2.7475,-2.7476,-2.7502,-2.7506,-2.7509,0,0,0,0,0,-2.7459,-2.7476,-2.7468,-2.7469,-2.7469,-2.7475,-2.7475,-2.7462,-2.745,-2.7458,-2.7452,-2.7439,-2.7453,-2.7442,-2.7444,-2.7456,-2.7472,-2.7474,-2.7476,-2.75,-2.7505,-2.7509,0,0,0,0,0,0,-2.7487,-2.7475,-2.7466,-2.7481,-2.7479,-2.747,-2.748,-2.7468,-2.747,-2.7467,-2.7453,-2.7452,-2.7465,-2.7462,-2.7451,-2.7477,-2.746,-2.7463,-2.7478,-2.7483,-2.7486,-2.7486,-2.7428,0,0,0,0,0,-2.7495,-2.75,-2.749,-2.7504,-2.7503,-2.7492,-2.7494,-2.7485,-2.7482,-2.7481,-2.7475,-2.7473,-2.7477,-2.748,-2.7483,-2.7502,-2.7499,-2.7511,-2.7515,-2.7518,-2.752,-2.7528,-2.7533,-2.7484,-2.7484,-2.7484,0,0,-2.7511,-2.7505,-2.751,-2.751,-2.7507,-2.7512,-2.7491,-2.7498,-2.7502,-2.7482,-2.7492,-2.7489,-2.7486,-2.7501,-2.7507,-2.7498,-2.7533,-2.7521,-2.7524,-2.7523,-2.7531,-2.7535,-2.7539,-2.7486,-2.7485,-2.7485,0,0,-2.7543,-2.754,-2.7551,-2.7549,-2.7544,-2.7537,-2.754,-2.7532,-2.7528,-2.7539,-2.7523,-2.7528,-2.7536,-2.7534,-2.7534,-2.7566,-2.7553,-2.7567,-2.7587,-2.7595,-2.7599,-2.7602,-2.7612,-2.7616,-2.757,-2.757,-2.757,0,-2.7564,-2.7572,-2.7559,-2.7566,-2.7566,-2.7548,-2.7559,-2.7558,-2.7555,-2.7556,-2.7546,-2.7554,-2.7551,-2.7565,-2.7572,-2.7574,-2.7576,-2.7567,-2.76,-2.7603,-2.7606,-2.7615,-2.7619,-2.7571,-2.7571,-2.7571,-2.7571,0,-2.7597,-2.7602,-2.7612,-2.7608,-2.761,-2.7619,-2.7608,-2.7611,-2.7602,-2.7596,-2.7606,-2.7602,-2.7603,-2.7606,-2.7598,-2.7619,-2.7613,-2.7602,-2.7585,-2.7612,-2.762,-2.7624,-2.7574,-2.7573,-2.7572,-2.7572,0,0,-2.7645,-2.7634,-2.7638,-2.7636,-2.763,-2.7634,-2.7643,-2.7644,-2.7646,-2.7645,-2.7652,-2.7658,-2.7648,-2.7648,-2.7639,-2.7647,-2.767,-2.7635,-2.7634,-2.764,-2.7691,-2.7698,-2.7702,-2.7663,-2.7664,-2.7664,-2.7691,0,-2.7674,-2.7687,-2.7676,-2.7691,-2.7695,-2.7678,-2.7686,-2.7683,-2.7678,-2.7681,-2.7675,-2.7679,-2.7666,-2.7666,-2.7672,-2.7666,-2.768,-2.7664,-2.7668,-2.7668,-2.7667,-2.7707,-2.7714,-2.7739,-2.7694,-2.7695,-2.7695,0,-2.7709,-2.7709,-2.7724,-2.7716,-2.7718,-2.7725,-2.7724,-2.7728,-2.7724,-2.772,-2.772,-2.7709,-2.7717,-2.7702,-2.7713,-2.7702,-2.7703,-2.7701,-2.7701,-2.7699,-2.7682,-2.7704,-2.7747,-2.775,-2.7701,-2.77,-2.77,0,-2.7741,-2.7744,-2.7753,-2.7753,-2.7744,-2.7749,-2.7746,-2.7742,-2.7743,-2.7743,-2.7743,-2.7745,-2.7745,-2.7747,-2.7737,-2.7727,-2.7748,-2.7732,-2.7744,-2.7744,-2.7747,-2.7747,-2.7789,-2.7752,-2.7752,-2.7752,-2.7752,0,-2.7773,-2.7783,-2.7767,-2.7773,-2.7783,-2.777,-2.7781,-2.7777,-2.7773,-2.7777,-2.7764,-2.7769,-2.7756,-2.776,-2.7753,-2.7761,-2.7762,-2.7758,-2.7756,-2.7758,-2.7759,-2.7757,-2.7755,-2.7753,-2.7752,-2.7752,-2.7752,0,-2.7809,-2.7799,-2.7808,-2.7799,-2.7797,-2.7805,-2.7798,-2.7803,-2.7796,-2.7802,-2.7803,-2.7793,-2.7796,-2.7787,-2.7789,-2.7784,-2.7797,-2.7793,-2.7798,-2.7795,-2.7807,-2.7805,-2.7848,-2.7853,-2.7814,-2.7815,-2.7815,0,-2.7829,-2.7836,-2.7828,-2.7829,-2.7827,-2.783,-2.783,-2.7819,-2.782,-2.7817,-2.7822,-2.7824,-2.7825,-2.7831,-2.7824,-2.7826,-2.782,-2.7835,-2.782,-2.7822,-2.7818,-2.7817,-2.7817,-2.7838,-2.7838,-2.7839,-2.7839,0,-2.7865,-2.786,-2.7861,-2.786,-2.7861,-2.786,-2.7859,-2.7861,-2.7849,-2.7851,-2.7854,-2.7854,-2.7856,-2.7858,-2.7858,-2.7855,-2.7845,-2.7844,-2.7846,-2.7848,-2.7849,-2.7847,-2.7804,-2.7842,-2.7842,-2.7842,-2.7842,-2.7841,-2.7893,-2.7897,-2.7892,-2.7894,-2.7891,-2.789,-2.7893,-2.7887,-2.7889,-2.7889,-2.7882,-2.7886,-2.7883,-2.7882,-2.788,-2.7883,-2.7876,-2.788,-2.7881,-2.7881,-2.7882,-2.7851,-2.7883,-2.7883,-2.7883,-2.7883,-2.7883,0,-2.7927,-2.7922,-2.7924,-2.7921,-2.7923,-2.7913,-2.7911,-2.7912,-2.7915,-2.7913,-2.7914,-2.7917,-2.7918,-2.7912,-2.7913,-2.7916,-2.7912,-2.7917,-2.7916,-2.7915,-2.7889,-2.7886,-2.7921,-2.7921,-2.7921,-2.7921,-2.7921,-2.7921,-2.7944,-2.7951,-2.7946,-2.7951,-2.7947,-2.795,-2.7949,-2.7948,-2.7946,-2.7949,-2.795,-2.7946,-2.7942,-2.7942,-2.7944,-2.7942,-2.7942,-2.7948,-2.7945,-2.7921,-2.7917,-2.7913,-2.791,-2.7949,-2.7949,-2.797,-2.797,-2.797]},{"header":{"parameterUnit":"m.s-1","parameterCategory":1,"la1":30.2991,"la2":30.254,"lo1":-89.0895,"lo2":-89.0444,"dy":0.0017,"dx":0.0017,"nx":28,"ny":28,"refTime":"2024-10-04T03:00:00:Z","depth":0,"parameterNumber":3,"parameterNumberName":"V-component_of_WINDS"},"data":[0,0,0,0,0,0,0,0,0,0,0,0,0,0,0,0,0,0,0,0,0,0,0,0,0,0,0,0,0,0,0,0,0,0,0,0,0,0,0,0,0,0,0,0,0,0,0,0,0,0,0,0,0,0,0,0,0,0,3.1723,3.1722,0,3.1626,3.1625,3.1624,3.1578,3.1579,3.1579,3.1579,3.1471,3.1468,3.1465,0,0,0,0,0,0,0,0,0,0,0,0,0,3.1863,3.186,3.1723,3.1722,3.1721,3.1626,3.1625,3.1624,3.1578,3.1579,3.1579,3.1579,3.1472,3.1468,3.1465,0,0,0,0,0,0,0,0,0,0,0,0,0,3.1787,3.186,3.1724,3.1687,3.1683,3.1627,3.1625,3.1623,3.1578,3.1579,3.1579,3.1579,3.1473,3.1469,3.1464,3.1434,0,0,3.1451,3.1449,0,0,0,0,0,0,0,0,3.1792,3.1782,3.1694,3.169,3.1685,3.1615,3.1634,3.1559,3.1578,3.1618,3.1579,3.1579,3.1518,3.151,3.1491,3.1429,3.1424,3.145,3.1448,3.1446,3.1445,0,0,0,0,0,0,0,3.1797,3.1786,3.1685,3.1692,3.1687,3.1673,3.1663,3.162,3.1568,3.1614,3.1611,3.16,3.1516,3.1496,3.1488,3.1423,3.1451,3.1447,3.1444,3.1442,3.1331,3.1331,0,0,0,0,0,0,3.1809,3.1791,3.1688,3.1682,3.174,3.1671,3.1659,3.1637,3.1569,3.1558,3.16,3.1599,3.1503,3.1493,3.1484,3.1444,3.1446,3.1442,3.1439,3.1331,3.1331,3.1331,0,0,0,0,0,0,3.1812,3.18,3.1692,3.1735,3.172,3.1668,3.1644,3.1635,3.1615,3.1558,3.1548,3.159,3.1503,3.1491,3.1448,3.144,3.144,3.1436,3.1332,3.1331,3.1331,3.1365,0,0,0,0,0,0,3.1817,3.1802,3.1792,3.1736,3.1718,3.1659,3.1643,3.1633,3.1608,3.1605,3.1546,3.1536,3.1502,3.1454,3.1443,3.1434,3.1432,3.1332,3.1331,3.1331,3.1364,3.1366,3.1367,0,0,0,0,0,3.1822,3.1803,3.1791,3.1779,3.1705,3.1659,3.1648,3.1612,3.1608,3.1596,3.156,3.1538,3.1443,3.145,3.1437,3.1427,3.1332,3.1332,3.1331,3.1364,3.1365,3.1367,0,0,0,0,0,0,3.1856,3.1795,3.1781,3.1745,3.1708,3.1651,3.1635,3.1615,3.1577,3.1575,3.1529,3.1516,3.1477,3.1447,3.1457,3.1394,3.1385,3.1382,3.1415,3.1416,3.1417,3.1425,3.1428,0,0,0,0,0,3.1861,3.1831,3.1777,3.175,3.1733,3.1687,3.1666,3.1641,3.16,3.1583,3.1543,3.1502,3.1463,3.1438,3.1399,3.136,3.1346,3.1346,3.1348,3.1349,3.1346,3.1323,3.1323,3.1328,3.1328,3.1329,0,0,3.1867,3.183,3.1813,3.1756,3.1725,3.1693,3.1674,3.1641,3.1616,3.1577,3.1535,3.1505,3.1455,3.1414,3.1394,3.1388,3.1342,3.1348,3.135,3.1346,3.1323,3.1322,3.1322,3.1328,3.1328,3.1328,0,0,3.1863,3.1833,3.1807,3.1776,3.173,3.17,3.1694,3.1641,3.162,3.1578,3.1548,3.1516,3.145,3.1416,3.139,3.1375,3.1353,3.1363,3.137,3.1349,3.1348,3.1347,3.1341,3.134,3.1361,3.1361,3.1361,0,3.1877,3.183,3.1795,3.1764,3.1739,3.1706,3.1678,3.1649,3.1591,3.1574,3.1569,3.1486,3.145,3.1401,3.1398,3.1378,3.1368,3.137,3.1352,3.135,3.1349,3.1343,3.1341,3.1363,3.1363,3.1362,3.1362,0,3.1848,3.1816,3.18,3.1749,3.1722,3.1693,3.1652,3.1628,3.1607,3.1577,3.1533,3.149,3.1442,3.1428,3.1405,3.1376,3.1374,3.1361,3.1351,3.1351,3.1344,3.1342,3.1365,3.1364,3.1364,3.1364,0,0,3.1862,3.1794,3.1788,3.1764,3.1711,3.1684,3.1653,3.1609,3.1589,3.155,3.1522,3.1468,3.1456,3.1427,3.14,3.1381,3.1371,3.137,3.1368,3.1371,3.1335,3.1345,3.1343,3.1357,3.1356,3.1356,3.1339,0,3.1851,3.1796,3.1764,3.1721,3.1691,3.1659,3.1632,3.1595,3.1566,3.1534,3.1501,3.1464,3.1451,3.1433,3.1413,3.1377,3.1363,3.1377,3.1328,3.1326,3.1341,3.1339,3.1349,3.1336,3.1336,3.1336,3.1335,0,3.1829,3.1795,3.175,3.1701,3.1687,3.1663,3.162,3.159,3.1547,3.1528,3.1497,3.147,3.1434,3.1428,3.1377,3.1387,3.1365,3.1344,3.1342,3.1335,3.133,3.1332,3.133,3.1328,3.1331,3.1331,3.1332,0,3.1844,3.1785,3.1751,3.1732,3.1674,3.1658,3.1632,3.159,3.1566,3.1527,3.1511,3.1468,3.1444,3.141,3.1372,3.1372,3.1324,3.1315,3.1305,3.1306,3.1295,3.1296,3.129,3.1283,3.1283,3.1283,3.1283,0,3.1834,3.1807,3.1757,3.1736,3.1705,3.1668,3.1637,3.1609,3.1572,3.1543,3.1512,3.1486,3.1438,3.1404,3.1374,3.1336,3.1325,3.1307,3.1299,3.1309,3.1311,3.1293,3.1293,3.1282,3.1282,3.1282,3.1282,0,3.1844,3.181,3.177,3.172,3.1706,3.1686,3.1641,3.1618,3.1589,3.1553,3.1542,3.1495,3.1454,3.1414,3.1358,3.1337,3.1299,3.1289,3.1315,3.131,3.1302,3.1303,3.1283,3.1278,3.1275,3.1275,3.1275,0,3.184,3.1819,3.1767,3.1747,3.1724,3.1691,3.1667,3.1629,3.1605,3.1555,3.1538,3.1496,3.146,3.1396,3.1355,3.1312,3.13,3.1296,3.1293,3.1304,3.1299,3.1301,3.1298,3.1297,3.1297,3.1297,3.1297,0,3.1835,3.182,3.1787,3.1749,3.1722,3.1689,3.1655,3.164,3.1595,3.1569,3.1529,3.1501,3.1446,3.1403,3.1356,3.1327,3.1304,3.1299,3.1294,3.1304,3.132,3.1311,3.1317,3.1299,3.1299,3.1299,3.1299,3.1299,3.1837,3.1818,3.1779,3.1744,3.1715,3.1684,3.1661,3.1629,3.1596,3.155,3.1529,3.1488,3.1445,3.138,3.1352,3.1318,3.1312,3.1305,3.1303,3.1302,3.1304,3.1327,3.1309,3.1309,3.1309,3.1309,3.1309,0,3.1831,3.1805,3.1773,3.1728,3.17,3.1685,3.1646,3.1623,3.1589,3.1552,3.1518,3.1472,3.1431,3.1388,3.1344,3.1325,3.1313,3.1315,3.1315,3.1309,3.1312,3.1321,3.1325,3.1325,3.1325,3.1325,3.1325,3.1325,3.1824,3.179,3.177,3.1721,3.1694,3.1656,3.1636,3.1607,3.1578,3.1528,3.1495,3.1468,3.1429,3.1382,3.1343,3.1332,3.1316,3.1321,3.1306,3.1309,3.1308,3.1307,3.1315,3.1318,3.1318,3.1305,3.1305,3.1305]}]]